Le nostre stazioni meteo in Italia

Pubblicità
Il mio iltempo24.it
Matera, Italia (16314): Temperatura & dewpoint: 15.06.2019 00:00:00 - 21.06.2019 00:00:00 (CEST)Matera, Italia (16314): velocità del vento: 15.06.2019 00:00:00 - 21.06.2019 00:00:00 (CEST)Matera, Italia (16314): direzione del vento: 15.06.2019 00:00:00 - 21.06.2019 00:00:00 (CEST)Matera, Italia (16314): reduced air pressure: 15.06.2019 00:00:00 - 21.06.2019 00:00:00 (CEST)
Data & Tempo tt [°C] td [°C] ff [km/h] ff [kn] dd ppp [hPa]
21.06.2019 00:00:00 - - - - - -
20.06.2019 23:00:00 22,8 17,4 0 0 N 1016,3
20.06.2019 22:00:00 22,6 18,7 0 0 N 1015,8
20.06.2019 21:00:00 23,9 18,7 0 0 N 1014,8
20.06.2019 20:00:00 24,6 19,6 5 3 S 1014,5
20.06.2019 19:00:00 25,0 20,2 0 0 N 1014,2
20.06.2019 18:00:00 23,8 19,9 5 3 S 1014,3
20.06.2019 17:00:00 25,9 18,5 13 7 SSE 1014,3
20.06.2019 16:00:00 29,8 16,6 21 11 SO 1013,2
20.06.2019 15:00:00 30,4 17,4 13 7 SSO 1013,2
20.06.2019 14:00:00 30,0 17,1 21 11 OSO 1013,4
20.06.2019 13:00:00 29,1 16,6 8 4 ENE 1014,1
20.06.2019 12:00:00 29,3 15,4 0 0 N 1014,3
20.06.2019 11:00:00 28,8 16,6 0 0 N 1014,4
20.06.2019 10:00:00 27,2 16,1 0 0 N 1014,5
20.06.2019 09:00:00 25,5 16,0 15 8 ENE 1014,8
20.06.2019 08:00:00 23,7 16,4 13 7 ENE 1015,0
20.06.2019 07:00:00 21,3 17,8 9 5 N 1015,2
20.06.2019 06:00:00 19,7 17,2 13 7 NNE 1015,2
20.06.2019 05:00:00 20,4 17,3 13 7 N 1014,6
20.06.2019 04:00:00 20,5 17,1 15 8 N 1014,8
20.06.2019 03:00:00 21,2 17,5 11 6 N 1014,7
20.06.2019 02:00:00 21,8 17,9 9 5 N 1015,0
20.06.2019 01:00:00 20,4 16,2 0 0 N 1015,5
20.06.2019 00:00:00 21,2 16,9 0 0 N 1015,6
19.06.2019 23:00:00 21,6 17,3 2 1 S 1015,6
19.06.2019 22:00:00 22,8 17,4 13 7 OSO 1014,8
19.06.2019 21:00:00 23,4 17,5 0 0 N 1014,6
19.06.2019 20:00:00 23,8 17,5 8 4 SO 1014,2
19.06.2019 19:00:00 24,9 16,3 18 10 SO 1013,7
19.06.2019 18:00:00 26,9 15,8 21 11 SSO 1013,3
19.06.2019 17:00:00 26,7 17,1 15 8 S 1013,7
19.06.2019 16:00:00 26,2 17,2 8 4 SE 1013,9
19.06.2019 15:00:00 29,4 16,9 0 0 N 1013,5
19.06.2019 14:00:00 29,2 15,7 8 4 SSE 1013,6
19.06.2019 13:00:00 29,3 16,8 16 9 OSO 1014,3
19.06.2019 12:00:00 28,6 17,7 0 0 N 1014,5
19.06.2019 11:00:00 25,7 16,2 0 0 N 1015,3
19.06.2019 10:00:00 26,2 17,2 4 2 OSO 1015,2
19.06.2019 09:00:00 24,5 17,2 5 3 NE 1015,4
19.06.2019 08:00:00 23,1 16,8 4 2 NE 1015,4
19.06.2019 07:00:00 21,3 16,0 0 0 N 1015,5
19.06.2019 06:00:00 21,3 14,8 0 0 N 1015,5
19.06.2019 05:00:00 21,4 14,9 0 0 N 1015,6
19.06.2019 04:00:00 21,2 14,0 5 3 ENE 1015,7
19.06.2019 03:00:00 21,0 13,8 4 2 E 1015,8
19.06.2019 02:00:00 20,3 15,0 5 3 NE 1016,3
19.06.2019 01:00:00 20,3 16,3 11 6 NE 1016,8
19.06.2019 00:00:00 21,2 16,5 9 5 NNE 1017,0
18.06.2019 23:00:00 21,8 17,3 0 0 N 1016,6
18.06.2019 22:00:00 22,0 17,3 5 3 ESE 1016,3
18.06.2019 21:00:00 23,6 16,8 0 0 N 1016,3
18.06.2019 20:00:00 24,3 16,7 0 0 N 1015,8
18.06.2019 19:00:00 25,6 16,9 0 0 N 1015,1
18.06.2019 18:00:00 25,8 16,8 11 6 S 1014,7
18.06.2019 17:00:00 25,0 17,4 15 8 ESE 1014,9
18.06.2019 16:00:00 23,7 17,1 9 5 ESE 1015,6
18.06.2019 15:00:00 23,6 17,0 16 9 ESE 1016,1
18.06.2019 14:00:00 25,4 15,6 18 10 NNE 1015,4
18.06.2019 13:00:00 29,1 15,2 11 6 OSO 1014,7
18.06.2019 12:00:00 27,6 14,5 0 0 N 1015,2
18.06.2019 11:00:00 27,6 15,5 0 0 N 1015,1
18.06.2019 10:00:00 25,9 16,4 5 3 NE 1015,4
18.06.2019 09:00:00 23,5 16,7 11 6 NE 1015,9
18.06.2019 08:00:00 21,5 17,4 22 12 NNE 1016,1
18.06.2019 07:00:00 20,0 16,6 15 8 N 1015,9
18.06.2019 06:00:00 19,0 14,2 15 8 NNE 1016,0
18.06.2019 05:00:00 18,5 14,3 15 8 NNE 1016,3
18.06.2019 04:00:00 18,5 14,9 16 9 NNE 1016,3
18.06.2019 03:00:00 19,4 15,0 15 8 NNE 1015,9
18.06.2019 02:00:00 20,2 14,5 15 8 NNE 1015,8
18.06.2019 01:00:00 21,4 15,8 16 9 N 1015,8
18.06.2019 00:00:00 22,4 13,1 16 9 NE 1015,5
17.06.2019 23:00:00 22,6 15,8 5 3 NE 1015,5
17.06.2019 22:00:00 22,2 16,2 13 7 E 1015,5
17.06.2019 21:00:00 23,7 14,3 13 7 E 1014,7
17.06.2019 20:00:00 26,4 14,4 4 2 S 1013,7
17.06.2019 19:00:00 28,2 13,3 16 9 SSO 1012,8
17.06.2019 18:00:00 28,5 13,2 15 8 SSO 1012,5
17.06.2019 17:00:00 29,3 13,1 15 8 S 1012,3
17.06.2019 16:00:00 29,7 13,4 29 16 S 1012,5
17.06.2019 15:00:00 29,8 13,9 13 7 S 1012,6
17.06.2019 14:00:00 30,4 14,5 5 3 ENE 1013,2
17.06.2019 13:00:00 30,2 12,2 8 4 O 1013,3
17.06.2019 12:00:00 29,5 13,2 16 9 SO 1013,5
17.06.2019 11:00:00 28,3 14,1 9 5 ENE 1013,7
17.06.2019 10:00:00 26,9 15,2 8 4 NE 1014,1
17.06.2019 09:00:00 25,2 14,6 16 9 NE 1014,8
17.06.2019 08:00:00 23,3 13,1 24 13 N 1015,1
17.06.2019 07:00:00 21,3 15,3 18 10 NNE 1015,1
17.06.2019 06:00:00 19,5 15,1 15 8 NNE 1015,1
17.06.2019 05:00:00 19,3 14,3 15 8 NE 1014,9
17.06.2019 04:00:00 21,7 15,0 11 6 NNO 1014,0
17.06.2019 03:00:00 21,2 14,3 13 7 NNO 1014,6
17.06.2019 02:00:00 22,1 13,9 9 5 NNO 1015,0
17.06.2019 01:00:00 22,4 14,2 8 4 NO 1015,4
17.06.2019 00:00:00 24,3 13,4 8 4 N 1015,4
16.06.2019 23:00:00 24,0 13,7 5 3 N 1014,9
16.06.2019 22:00:00 23,2 15,2 2 1 N 1014,7
16.06.2019 21:00:00 24,2 14,8 15 8 E 1014,7
16.06.2019 20:00:00 26,6 14,6 24 13 E 1014,2
16.06.2019 19:00:00 28,1 16,0 26 14 E 1013,3
16.06.2019 18:00:00 30,2 16,9 11 6 ESE 1012,3
16.06.2019 17:00:00 31,7 15,6 8 4 ENE 1011,7
16.06.2019 16:00:00 32,1 15,6 2 1 ENE 1012,1
16.06.2019 15:00:00 31,7 13,4 11 6 E 1012,6
16.06.2019 14:00:00 31,7 14,8 11 6 ENE 1013,2
16.06.2019 13:00:00 30,9 15,7 8 4 NE 1014,0
16.06.2019 12:00:00 29,9 15,9 16 9 ENE 1014,3
16.06.2019 11:00:00 29,4 15,1 22 12 NE 1014,2
16.06.2019 10:00:00 28,6 13,2 22 12 NE 1013,9
16.06.2019 09:00:00 26,8 14,8 28 15 NNE 1013,8
16.06.2019 08:00:00 24,3 14,0 29 16 N 1014,0
16.06.2019 07:00:00 22,4 13,6 16 9 NNE 1014,2
16.06.2019 06:00:00 23,2 13,6 21 11 N 1013,8
16.06.2019 05:00:00 22,8 13,5 22 12 NNE 1013,9
16.06.2019 04:00:00 22,9 12,8 18 10 N 1014,2
16.06.2019 03:00:00 24,0 13,5 16 9 N 1014,2
16.06.2019 02:00:00 23,4 15,1 16 9 NNE 1014,4
16.06.2019 01:00:00 24,2 13,3 15 8 N 1014,4
16.06.2019 00:00:00 25,5 13,0 13 7 NNE 1014,3
15.06.2019 23:00:00 26,7 13,0 9 5 NNE 1014,2
15.06.2019 22:00:00 28,4 14,9 13 7 N 1013,8
15.06.2019 21:00:00 27,7 12,8 9 5 O 1013,5
15.06.2019 20:00:00 31,4 12,8 0 0 N 1012,8
15.06.2019 19:00:00 33,0 13,1 0 0 N 1012,4
15.06.2019 18:00:00 33,3 13,4 11 6 E 1012,5
15.06.2019 17:00:00 34,0 14,0 21 11 E 1012,7
15.06.2019 16:00:00 - - - - - -
15.06.2019 15:00:00 35,4 13,0 22 12 N 1013,1
15.06.2019 14:00:00 34,8 14,7 13 7 NNE 1013,6
15.06.2019 13:00:00 34,2 12,6 5 3 ENE 1014,0
15.06.2019 12:00:00 33,9 8,6 11 6 NNE 1014,4
15.06.2019 11:00:00 33,5 10,3 15 8 N 1014,5
15.06.2019 10:00:00 32,0 10,2 9 5 NNE 1014,8
15.06.2019 09:00:00 28,1 12,4 11 6 NNE 1015,5
15.06.2019 08:00:00 28,4 11,9 9 5 NNE 1015,6
15.06.2019 07:00:00 26,6 10,7 9 5 N 1015,5
15.06.2019 06:00:00 24,9 10,3 9 5 N 1016,1
15.06.2019 05:00:00 24,8 10,6 13 7 NNE 1015,9
15.06.2019 04:00:00 23,7 10,0 16 9 NNE 1016,3
15.06.2019 03:00:00 24,4 8,7 21 11 NNE 1016,6
15.06.2019 02:00:00 25,0 8,9 18 10 NNE 1016,9
15.06.2019 01:00:00 24,8 9,5 16 9 N 1017,8
15.06.2019 00:00:00 24,7 10,5 15 8 NNE 1018,3

tt = Temperatura
td = dewpoint
ff = velocità del vento
dd = direzione del vento
ppp = reduced air pressure

Stazioni seguenti

WeatherPro
AMSI
MeteoEarth